Location: Lhota
(50.0887°N, 14.0116°E)
Time: 17:28:43
(UTC+00:00)

Terra - Pass Details

Date: 19 May 2025
Orbit: 690 x 692 km, 98.0° (Epoch: 17 June)

Event Time Altitude Azimuth Distance (km) Brightness Sun altitude
Exits shadow 20:50:07 - 204° (SSW) 2,608 4.4 -14.3°
Reaches altitude 10° 20:51:30 10° 213° (SSW) 2,140 4.1 -14.4°
Maximum altitude 20:55:18 24° 268° (W) 1,412 3.7 -14.7°
Drops below altitude 10° 20:59:08 10° 322° (NW) 2,154 5.7 -15.0°
Sets 21:01:47 0° 336° (NNW) 3,076 7.0 -15.2°
